| time (UTC) | temp F | wind direction | speed MPH | gust MPH | rain 1hr in | rain 24hr in | rain mn in | humidity % | barometer mb |
| 20260831050505 | 80 | 69 | 0.0 | 0.0 | 0.00 | 0.00 | 0.00 | 78 | 1013.0 |
| 20260831045505 | 80 | 134 | 0.0 | 0.0 | 0.00 | 0.00 | 0.00 | 77 | 1013.0 |
| 20260831045004 | 80 | 38 | 18.0 | 0.0 | 0.00 | 0.00 | 0.00 | 77 | 1013.3 |
| 20260831044505 | 80 | 115 | 9.0 | 0.0 | 0.00 | 0.00 | 0.00 | 77 | 1013.3 |
| 20260831044005 | 80 | 77 | 9.0 | 0.0 | 0.00 | 0.00 | 0.00 | 77 | 1013.0 |
| 20260831043505 | 80 | 65 | 23.0 | 0.0 | 0.00 | 0.00 | 0.00 | 77 | 1013.3 |
| 20260831043005 | 80 | 162 | 13.0 | 0.0 | 0.00 | 0.00 | 0.00 | 77 | 1013.3 |
| 20260831042505 | 80 | 109 | 18.0 | 0.0 | 0.00 | 0.00 | 0.00 | 76 | 1013.3 |
| 20260831042212 | 80 | 64 | 18.0 | 0.0 | 0.00 | 0.00 | 0.00 | 76 | 1013.3 |
| 20260831041711 | 80 | 65 | 9.0 | 0.0 | 0.00 | 0.00 | 0.00 | 76 | 1013.0 |
| 20260831040505 | 80 | 36 | 13.0 | 0.0 | 0.00 | 0.00 | 0.00 | 75 | 1012.7 |
| 20260831040005 | 80 | 65 | 23.0 | 0.0 | 0.00 | 0.00 | 0.00 | 74 | 1012.7 |
| 20260831035505 | 80 | 60 | 4.0 | 0.0 | 0.00 | 0.00 | 0.00 | 73 | 1012.7 |
| 20260831035212 | 81 | 294 | 9.0 | 0.0 | 0.00 | 0.00 | 0.00 | 73 | 1012.3 |
| 20260831034505 | 81 | 63 | 9.0 | 0.0 | 0.00 | 0.00 | 0.00 | 72 | 1012.7 |
| 20260831034005 | 81 | 104 | 13.0 | 0.0 | 0.00 | 0.00 | 0.00 | 71 | 1012.7 |
| 20260831033505 | 81 | 147 | 4.0 | 0.0 | 0.00 | 0.00 | 0.00 | 71 | 1012.3 |
| 20260831033005 | 81 | 66 | 4.0 | 0.0 | 0.00 | 0.00 | 0.00 | 71 | 1012.3 |
| 20260831032505 | 81 | 127 | 9.0 | 0.0 | 0.00 | 0.00 | 0.00 | 71 | 1012.3 |
| 20260831032004 | 81 | 307 | 13.0 | 0.0 | 0.00 | 0.00 | 0.00 | 70 | 1012.3 |
| 20260831031505 | 81 | 110 | 9.0 | 0.0 | 0.00 | 0.00 | 0.00 | 69 | 1012.0 |
| 20260831031212 | 81 | 95 | 9.0 | 0.0 | 0.00 | 0.00 | 0.00 | 69 | 1012.0 |
| 20260831030505 | 81 | 79 | 18.0 | 0.0 | 0.00 | 0.00 | 0.00 | 69 | 1012.3 |
| 20260831030005 | 82 | 185 | 13.0 | 0.0 | 0.00 | 0.00 | 0.00 | 69 | 1012.0 |
| 20260831025505 | 82 | 73 | 13.0 | 0.0 | 0.00 | 0.00 | 0.00 | 68 | 1012.0 |
| 20260831025005 | 82 | 84 | 18.0 | 0.0 | 0.00 | 0.00 | 0.00 | 68 | 1011.6 |
| 20260831024505 | 82 | 28 | 4.0 | 0.0 | 0.00 | 0.00 | 0.00 | 67 | 1011.6 |
| 20260831023504 | 82 | 79 | 13.0 | 0.0 | 0.00 | 0.00 | 0.00 | 65 | 1011.6 |
| 20260831023005 | 82 | 62 | 4.0 | 0.0 | 0.00 | 0.00 | 0.00 | 65 | 1011.3 |
| 20260831022505 | 83 | 101 | 9.0 | 0.0 | 0.00 | 0.00 | 0.00 | 65 | 1011.3 |
| 20260831022005 | 83 | 32 | 23.0 | 0.0 | 0.00 | 0.00 | 0.00 | 64 | 1011.3 |
| 20260831021505 | 83 | 86 | 0.0 | 0.0 | 0.00 | 0.00 | 0.00 | 63 | 1011.3 |
| 20260831021005 | 83 | 108 | 13.0 | 0.0 | 0.00 | 0.00 | 0.00 | 63 | 1011.3 |
| 20260831020712 | 83 | 86 | 9.0 | 0.0 | 0.00 | 0.00 | 0.00 | 62 | 1011.0 |
| 20260831020005 | 83 | 80 | 9.0 | 0.0 | 0.00 | 0.00 | 0.00 | 62 | 1011.0 |
| 20260831015505 | 83 | 23 | 9.0 | 0.0 | 0.00 | 0.00 | 0.00 | 61 | 1011.0 |
| 20260831015211 | 83 | 105 | 13.0 | 0.0 | 0.00 | 0.00 | 0.00 | 60 | 1010.6 |
| 20260831014505 | 83 | 122 | 9.0 | 0.0 | 0.00 | 0.00 | 0.00 | 59 | 1010.6 |
| 20260831014005 | 84 | 104 | 23.0 | 0.0 | 0.00 | 0.00 | 0.00 | 59 | 1010.6 |
| 20260831013712 | 84 | 28 | 23.0 | 0.0 | 0.00 | 0.00 | 0.00 | 59 | 1011.0 |
| 20260831013005 | 84 | 79 | 4.0 | 0.0 | 0.00 | 0.00 | 0.00 | 58 | 1010.6 |
| 20260831012504 | 84 | 19 | 9.0 | 0.0 | 0.00 | 0.00 | 0.00 | 58 | 1010.6 |
| 20260831012213 | 84 | 105 | 9.0 | 0.0 | 0.00 | 0.00 | 0.00 | 58 | 1010.6 |
| 20260831011505 | 85 | 94 | 27.0 | 0.0 | 0.00 | 0.00 | 0.00 | 57 | 1010.6 |
| 20260831011005 | 85 | 24 | 23.0 | 0.0 | 0.00 | 0.00 | 0.00 | 58 | 1010.6 |
| 20260831010712 | 85 | 121 | 4.0 | 0.0 | 0.00 | 0.00 | 0.00 | 57 | 1010.6 |
| 20260831010005 | 85 | 68 | 4.0 | 0.0 | 0.00 | 0.00 | 0.00 | 57 | 1010.6 |
| 20260831005712 | 86 | 67 | 27.0 | 0.0 | 0.00 | 0.00 | 0.00 | 56 | 1010.3 |
| 20260831005005 | 86 | 91 | 23.0 | 0.0 | 0.00 | 0.00 | 0.00 | 55 | 1010.3 |
| 20260831004504 | 86 | 135 | 32.0 | 0.0 | 0.00 | 0.00 | 0.00 | 54 | 1010.3 |
| 20260831004005 | 86 | 36 | 9.0 | 0.0 | 0.00 | 0.00 | 0.00 | 53 | 1010.3 |
| 20260831003505 | 86 | 143 | 27.0 | 0.0 | 0.00 | 0.00 | 0.00 | 53 | 1009.9 |
| 20260831003005 | 86 | 64 | 9.0 | 0.0 | 0.00 | 0.00 | 0.00 | 53 | 1009.9 |
| 20260831002505 | 86 | 69 | 13.0 | 0.0 | 0.00 | 0.00 | 0.00 | 53 | 1009.6 |
| 20260831002005 | 87 | 50 | 9.0 | 0.0 | 0.00 | 0.00 | 0.00 | 52 | 1009.6 |
| 20260831001505 | 87 | 91 | 18.0 | 0.0 | 0.00 | 0.00 | 0.00 | 51 | 1009.6 |
| 20260831001005 | 87 | 41 | 9.0 | 0.0 | 0.00 | 0.00 | 0.00 | 51 | 1009.6 |
| 20260831000504 | 88 | 101 | 23.0 | 0.0 | 0.00 | 0.00 | 0.00 | 50 | 1009.6 |
| 20260831000005 | 88 | 113 | 9.0 | 0.0 | 0.00 | 0.00 | 0.00 | 50 | 1009.6 |
| 20260830235714 | 88 | 35 | 18.0 | 0.0 | 0.00 | 0.00 | 0.00 | 50 | 1009.6 |
| 20260830235005 | 89 | 191 | 4.0 | 0.0 | 0.00 | 0.00 | 0.00 | 49 | 1009.6 |
| 20260830234714 | 89 | 128 | 13.0 | 0.0 | 0.00 | 0.00 | 0.00 | 48 | 1009.6 |
| 20260830234005 | 89 | 135 | 13.0 | 0.0 | 0.00 | 0.00 | 0.00 | 46 | 1009.6 |
| 20260830233505 | 89 | 152 | 9.0 | 0.0 | 0.00 | 0.00 | 0.00 | 47 | 1009.6 |
| 20260830233005 | 89 | 25 | 13.0 | 0.0 | 0.00 | 0.00 | 0.00 | 45 | 1009.3 |
| 20260830232505 | 90 | 42 | 23.0 | 0.0 | 0.00 | 0.00 | 0.00 | 44 | 1009.6 |
| 20260830232005 | 90 | 106 | 13.0 | 0.0 | 0.00 | 0.00 | 0.00 | 43 | 1009.6 |
| 20260830231505 | 90 | 165 | 13.0 | 0.0 | 0.00 | 0.00 | 0.00 | 43 | 1009.3 |
| 20260830231005 | 91 | 96 | 13.0 | 0.0 | 0.00 | 0.00 | 0.00 | 43 | 1009.3 |
| 20260830230713 | 91 | 152 | 4.0 | 0.0 | 0.00 | 0.00 | 0.00 | 43 | 1009.3 |
| 20260830230005 | 91 | 144 | 18.0 | 0.0 | 0.00 | 0.00 | 0.00 | 41 | 1009.3 |
| 20260830225713 | 91 | 21 | 4.0 | 0.0 | 0.00 | 0.00 | 0.00 | 41 | 1009.3 |
| 20260830225005 | 91 | 32 | 13.0 | 0.0 | 0.00 | 0.00 | 0.00 | 40 | 1009.3 |
| 20260830224505 | 91 | 155 | 9.0 | 0.0 | 0.00 | 0.00 | 0.00 | 41 | 1009.3 |
| 20260830224005 | 91 | 78 | 13.0 | 0.0 | 0.00 | 0.00 | 0.00 | 44 | 1009.3 |
| 20260830223505 | 91 | 348 | 18.0 | 0.0 | 0.00 | 0.00 | 0.00 | 45 | 1009.3 |
| 20260830223005 | 90 | 49 | 4.0 | 0.0 | 0.00 | 0.00 | 0.00 | 46 | 1008.9 |
| 20260830222505 | 91 | 27 | 13.0 | 0.0 | 0.00 | 0.00 | 0.00 | 46 | 1008.9 |
| 20260830222005 | 90 | 323 | 13.0 | 0.0 | 0.00 | 0.00 | 0.00 | 46 | 1008.9 |
| 20260830221505 | 91 | 108 | 37.0 | 0.0 | 0.00 | 0.00 | 0.00 | 45 | 1009.3 |
| 20260830221005 | 92 | 38 | 4.0 | 0.0 | 0.00 | 0.00 | 0.00 | 45 | 1008.9 |
| 20260830220505 | 91 | 331 | 13.0 | 0.0 | 0.00 | 0.00 | 0.00 | 43 | 1008.9 |
| 20260830220005 | 91 | 46 | 23.0 | 0.0 | 0.00 | 0.00 | 0.00 | 44 | 1008.9 |
| 20260830215505 | 91 | 68 | 13.0 | 0.0 | 0.00 | 0.00 | 0.00 | 41 | 1008.9 |
| 20260830215005 | 91 | 165 | 18.0 | 0.0 | 0.00 | 0.00 | 0.00 | 41 | 1008.9 |
| 20260830214504 | 91 | 71 | 18.0 | 0.0 | 0.00 | 0.00 | 0.00 | 41 | 1008.9 |
| 20260830214005 | 92 | 73 | 13.0 | 0.0 | 0.00 | 0.00 | 0.00 | 39 | 1009.3 |
| 20260830213505 | 92 | 93 | 18.0 | 0.0 | 0.00 | 0.00 | 0.00 | 38 | 1009.3 |
| 20260830213005 | 92 | 166 | 4.0 | 0.0 | 0.00 | 0.00 | 0.00 | 39 | 1009.3 |
| 20260830212505 | 92 | 158 | 13.0 | 0.0 | 0.00 | 0.00 | 0.00 | 37 | 1009.3 |
| 20260830212005 | 92 | 53 | 9.0 | 0.0 | 0.00 | 0.00 | 0.00 | 38 | 1009.6 |
| 20260830211505 | 92 | 51 | 4.0 | 0.0 | 0.00 | 0.00 | 0.00 | 38 | 1009.6 |
| 20260830211005 | 92 | 41 | 9.0 | 0.0 | 0.00 | 0.00 | 0.00 | 38 | 1009.3 |
| 20260830210505 | 92 | 154 | 9.0 | 0.0 | 0.00 | 0.00 | 0.00 | 36 | 1009.6 |
| 20260830210006 | 92 | 73 | 13.0 | 0.0 | 0.00 | 0.00 | 0.00 | 37 | 1009.6 |
| 20260830205505 | 92 | 6 | 4.0 | 0.0 | 0.00 | 0.00 | 0.00 | 38 | 1009.6 |
| 20260830205005 | 94 | 57 | 9.0 | 0.0 | 0.00 | 0.00 | 0.00 | 35 | 1009.6 |
| 20260830204712 | 95 | 87 | 13.0 | 0.0 | 0.00 | 0.00 | 0.00 | 35 | 1009.9 |
| 20260830204213 | 94 | 17 | 4.0 | 0.0 | 0.00 | 0.00 | 0.00 | 39 | 1009.9 |
| 20260830203712 | 94 | 147 | 13.0 | 0.0 | 0.00 | 0.00 | 0.00 | 36 | 1010.3 |
| 20260830203005 | 94 | 192 | 9.0 | 0.0 | 0.00 | 0.00 | 0.00 | 37 | 1010.3 |
| 20260830202504 | 92 | 129 | 4.0 | 0.0 | 0.00 | 0.00 | 0.00 | 37 | 1010.3 |
| 20260830202005 | 94 | 144 | 0.0 | 0.0 | 0.00 | 0.00 | 0.00 | 37 | 1010.6 |
| 20260830201505 | 93 | 150 | 4.0 | 0.0 | 0.00 | 0.00 | 0.00 | 38 | 1010.6 |
| 20260830201005 | 94 | 135 | 0.0 | 0.0 | 0.00 | 0.00 | 0.00 | 37 | 1010.6 |
| 20260830200505 | 92 | 167 | 9.0 | 0.0 | 0.00 | 0.00 | 0.00 | 39 | 1010.6 |
| 20260830200213 | 92 | 161 | 4.0 | 0.0 | 0.00 | 0.00 | 0.00 | 39 | 1010.6 |
| 20260830195712 | 92 | 115 | 0.0 | 0.0 | 0.00 | 0.00 | 0.00 | 41 | 1011.0 |
| 20260830195005 | 93 | 81 | 4.0 | 0.0 | 0.00 | 0.00 | 0.00 | 38 | 1011.0 |
| 20260830194505 | 92 | 168 | 0.0 | 0.0 | 0.00 | 0.00 | 0.00 | 38 | 1011.0 |
| 20260830194005 | 93 | 169 | 9.0 | 0.0 | 0.00 | 0.00 | 0.00 | 39 | 1011.3 |
| 20260830193505 | 93 | 182 | 9.0 | 0.0 | 0.00 | 0.00 | 0.00 | 36 | 1011.3 |
| 20260830193005 | 92 | 89 | 4.0 | 0.0 | 0.00 | 0.00 | 0.00 | 39 | 1011.0 |
| 20260830192505 | 92 | 112 | 4.0 | 0.0 | 0.00 | 0.00 | 0.00 | 40 | 1011.3 |
| 20260830192005 | 94 | 141 | 4.0 | 0.0 | 0.00 | 0.00 | 0.00 | 37 | 1011.6 |
| 20260830191505 | 93 | 120 | 13.0 | 0.0 | 0.00 | 0.00 | 0.00 | 37 | 1011.6 |
| 20260830191005 | 93 | 96 | 23.0 | 0.0 | 0.00 | 0.00 | 0.00 | 39 | 1011.6 |
| 20260830190504 | 93 | 143 | 13.0 | 0.0 | 0.00 | 0.00 | 0.00 | 38 | 1011.6 |
| 20260830190005 | 93 | 132 | 18.0 | 0.0 | 0.00 | 0.00 | 0.00 | 36 | 1012.0 |
| 20260830185505 | 92 | 163 | 4.0 | 0.0 | 0.00 | 0.00 | 0.00 | 42 | 1011.6 |
| 20260830185005 | 92 | 73 | 13.0 | 0.0 | 0.00 | 0.00 | 0.00 | 40 | 1012.0 |
| 20260830184505 | 92 | 143 | 4.0 | 0.0 | 0.00 | 0.00 | 0.00 | 39 | 1012.0 |
| 20260830184005 | 92 | 164 | 13.0 | 0.0 | 0.00 | 0.00 | 0.00 | 38 | 1012.3 |
| 20260830183505 | 92 | 58 | 0.0 | 0.0 | 0.00 | 0.00 | 0.00 | 38 | 1012.3 |
| 20260830183212 | 91 | 48 | 9.0 | 0.0 | 0.00 | 0.00 | 0.00 | 43 | 1012.3 |
| 20260830182505 | 92 | 54 | 4.0 | 0.0 | 0.00 | 0.00 | 0.00 | 42 | 1012.3 |
| 20260830182005 | 92 | 57 | 13.0 | 0.0 | 0.00 | 0.00 | 0.00 | 40 | 1012.7 |
| 20260830181505 | 92 | 123 | 9.0 | 0.0 | 0.00 | 0.00 | 0.00 | 42 | 1012.7 |
| 20260830181005 | 92 | 139 | 18.0 | 0.0 | 0.00 | 0.00 | 0.00 | 42 | 1012.7 |
| 20260830180505 | 92 | 162 | 9.0 | 0.0 | 0.00 | 0.00 | 0.00 | 42 | 1012.7 |
| 20260830180005 | 92 | 127 | 4.0 | 0.0 | 0.00 | 0.00 | 0.00 | 44 | 1012.7 |
| 20260830175505 | 91 | 111 | 13.0 | 0.0 | 0.00 | 0.00 | 0.00 | 43 | 1013.0 |
| 20260830175005 | 91 | 188 | 13.0 | 0.0 | 0.00 | 0.00 | 0.00 | 44 | 1013.0 |
| 20260830174713 | 91 | 120 | 4.0 | 0.0 | 0.00 | 0.00 | 0.00 | 46 | 1013.0 |
| 20260830174212 | 91 | 68 | 4.0 | 0.0 | 0.00 | 0.00 | 0.00 | 44 | 1013.0 |
| 20260830173505 | 90 | 88 | 13.0 | 0.0 | 0.00 | 0.00 | 0.00 | 46 | 1013.0 |
| 20260830173004 | 91 | 161 | 18.0 | 0.0 | 0.00 | 0.00 | 0.00 | 44 | 1013.3 |
| 20260830172505 | 90 | 109 | 4.0 | 0.0 | 0.00 | 0.00 | 0.00 | 45 | 1013.3 |
| 20260830172005 | 90 | 95 | 18.0 | 0.0 | 0.00 | 0.00 | 0.00 | 47 | 1013.7 |
| 20260830171505 | 90 | 145 | 13.0 | 0.0 | 0.00 | 0.00 | 0.00 | 45 | 1013.3 |
| 20260830171005 | 89 | 102 | 37.0 | 0.0 | 0.00 | 0.00 | 0.00 | 46 | 1013.7 |
| 20260830170505 | 89 | 68 | 13.0 | 0.0 | 0.00 | 0.00 | 0.00 | 49 | 1013.7 |
| 20260830170005 | 89 | 127 | 4.0 | 0.0 | 0.00 | 0.00 | 0.00 | 48 | 1013.7 |
| 20260830165504 | 89 | 93 | 13.0 | 0.0 | 0.00 | 0.00 | 0.00 | 48 | 1014.0 |
| 20260830165005 | 90 | 41 | 9.0 | 0.0 | 0.00 | 0.00 | 0.00 | 48 | 1014.0 |
| 20260830164505 | 89 | 157 | 9.0 | 0.0 | 0.00 | 0.00 | 0.00 | 49 | 1014.0 |
| 20260830164212 | 88 | 59 | 27.0 | 0.0 | 0.00 | 0.00 | 0.00 | 51 | 1013.7 |
| 20260830163505 | 89 | 27 | 9.0 | 0.0 | 0.00 | 0.00 | 0.00 | 50 | 1014.0 |
| 20260830163005 | 88 | 77 | 18.0 | 0.0 | 0.00 | 0.00 | 0.00 | 51 | 1014.0 |
| 20260830162505 | 88 | 288 | 4.0 | 0.0 | 0.00 | 0.00 | 0.00 | 52 | 1014.0 |
| 20260830162005 | 88 | 88 | 18.0 | 0.0 | 0.00 | 0.00 | 0.00 | 52 | 1014.0 |
| 20260830161505 | 88 | 98 | 9.0 | 0.0 | 0.00 | 0.00 | 0.00 | 53 | 1014.0 |
| 20260830161005 | 88 | 112 | 4.0 | 0.0 | 0.00 | 0.00 | 0.00 | 53 | 1014.0 |
| 20260830160506 | 87 | 187 | 9.0 | 0.0 | 0.00 | 0.00 | 0.00 | 55 | 1014.0 |
| 20260830160005 | 87 | 148 | 18.0 | 0.0 | 0.00 | 0.00 | 0.00 | 55 | 1014.0 |
| 20260830155505 | 87 | 60 | 4.0 | 0.0 | 0.00 | 0.00 | 0.00 | 55 | 1014.0 |
| 20260830155005 | 86 | 59 | 9.0 | 0.0 | 0.00 | 0.00 | 0.00 | 58 | 1014.0 |
| 20260830154505 | 86 | 358 | 13.0 | 0.0 | 0.00 | 0.00 | 0.00 | 58 | 1014.0 |
| 20260830154005 | 86 | 151 | 13.0 | 0.0 | 0.00 | 0.00 | 0.00 | 58 | 1014.0 |
| 20260830153505 | 86 | 127 | 13.0 | 0.0 | 0.00 | 0.00 | 0.00 | 57 | 1014.0 |
| 20260830153211 | 86 | 43 | 9.0 | 0.0 | 0.00 | 0.00 | 0.00 | 59 | 1014.0 |
| 20260830152505 | 85 | 158 | 9.0 | 0.0 | 0.00 | 0.00 | 0.00 | 61 | 1014.0 |
| 20260830152005 | 84 | 84 | 9.0 | 0.0 | 0.00 | 0.00 | 0.00 | 63 | 1014.0 |
| 20260830151505 | 85 | 115 | 13.0 | 0.0 | 0.00 | 0.00 | 0.00 | 61 | 1014.0 |
| 20260830151005 | 84 | 116 | 13.0 | 0.0 | 0.00 | 0.00 | 0.00 | 64 | 1014.0 |
| 20260830150712 | 85 | 358 | 18.0 | 0.0 | 0.00 | 0.00 | 0.00 | 64 | 1014.0 |
| 20260830150005 | 85 | 156 | 9.0 | 0.0 | 0.00 | 0.00 | 0.00 | 65 | 1014.0 |
| 20260830145505 | 84 | 101 | 4.0 | 0.0 | 0.00 | 0.00 | 0.00 | 65 | 1014.0 |
| 20260830145005 | 83 | 51 | 4.0 | 0.0 | 0.00 | 0.00 | 0.00 | 66 | 1014.0 |
| 20260830144505 | 83 | 119 | 9.0 | 0.0 | 0.00 | 0.00 | 0.00 | 67 | 1014.0 |
| 20260830144213 | 83 | 163 | 0.0 | 0.0 | 0.00 | 0.00 | 0.00 | 68 | 1013.7 |
| 20260830143505 | 83 | 138 | 13.0 | 0.0 | 0.00 | 0.00 | 0.00 | 69 | 1013.7 |
| 20260830143005 | 83 | 2 | 23.0 | 0.0 | 0.00 | 0.00 | 0.00 | 70 | 1014.0 |
| 20260830142505 | 83 | 186 | 23.0 | 0.0 | 0.00 | 0.00 | 0.00 | 70 | 1013.7 |
| 20260830142005 | 82 | 135 | 13.0 | 0.0 | 0.00 | 0.00 | 0.00 | 72 | 1013.7 |
| 20260830141505 | 82 | 66 | 13.0 | 0.0 | 0.00 | 0.00 | 0.00 | 72 | 1013.7 |
| 20260830141005 | 82 | 28 | 4.0 | 0.0 | 0.00 | 0.00 | 0.00 | 73 | 1013.7 |
| 20260830140505 | 81 | 89 | 0.0 | 0.0 | 0.00 | 0.00 | 0.00 | 75 | 1013.7 |
| 20260830140005 | 81 | 158 | 13.0 | 0.0 | 0.00 | 0.00 | 0.00 | 76 | 1013.7 |
| 20260830135505 | 81 | 136 | 4.0 | 0.0 | 0.00 | 0.00 | 0.00 | 76 | 1013.3 |
| 20260830135005 | 81 | 52 | 0.0 | 0.0 | 0.00 | 0.00 | 0.00 | 78 | 1013.3 |
| 20260830134505 | 80 | 116 | 4.0 | 0.0 | 0.00 | 0.00 | 0.00 | 80 | 1013.3 |
| 20260830134004 | 80 | 84 | 9.0 | 0.0 | 0.00 | 0.00 | 0.00 | 81 | 1013.3 |
| 20260830133505 | 79 | 27 | 4.0 | 0.0 | 0.00 | 0.00 | 0.00 | 82 | 1013.3 |
| 20260830133005 | 79 | 164 | 4.0 | 0.0 | 0.00 | 0.00 | 0.00 | 84 | 1013.3 |
| 20260830132505 | 78 | 179 | 4.0 | 0.0 | 0.00 | 0.00 | 0.00 | 84 | 1013.3 |
| 20260830132005 | 78 | 147 | 4.0 | 0.0 | 0.00 | 0.00 | 0.00 | 85 | 1013.3 |
| 20260830131505 | 78 | 102 | 9.0 | 0.0 | 0.00 | 0.00 | 0.00 | 86 | 1013.3 |
| 20260830131005 | 77 | 87 | 4.0 | 0.0 | 0.00 | 0.00 | 0.00 | 86 | 1013.3 |
| 20260830130505 | 77 | 116 | 0.0 | 0.0 | 0.00 | 0.00 | 0.00 | 87 | 1013.3 |
| 20260830130005 | 77 | 99 | 0.0 | 0.0 | 0.00 | 0.00 | 0.00 | 87 | 1013.3 |
| 20260830125711 | 77 | 121 | 0.0 | 0.0 | 0.00 | 0.00 | 0.00 | 88 | 1013.3 |
| 20260830125005 | 77 | 120 | 0.0 | 0.0 | 0.00 | 0.00 | 0.00 | 88 | 1013.3 |
| 20260830124505 | 77 | 119 | 0.0 | 0.0 | 0.00 | 0.00 | 0.00 | 88 | 1013.3 |
| 20260830124005 | 77 | 129 | 0.0 | 0.0 | 0.00 | 0.00 | 0.00 | 88 | 1013.3 |
| 20260830123713 | 77 | 130 | 0.0 | 0.0 | 0.00 | 0.00 | 0.00 | 88 | 1013.0 |
| 20260830123005 | 77 | 124 | 0.0 | 0.0 | 0.00 | 0.00 | 0.00 | 88 | 1013.0 |
| 20260830122505 | 77 | 138 | 4.0 | 0.0 | 0.00 | 0.00 | 0.00 | 88 | 1013.0 |
| 20260830122004 | 77 | 135 | 4.0 | 0.0 | 0.00 | 0.00 | 0.00 | 89 | 1012.7 |
| 20260830121505 | 77 | 85 | 4.0 | 0.0 | 0.00 | 0.00 | 0.00 | 89 | 1013.0 |
| 20260830121005 | 77 | 81 | 0.0 | 0.0 | 0.00 | 0.00 | 0.00 | 88 | 1012.7 |
| 20260830120505 | 77 | 107 | 4.0 | 0.0 | 0.00 | 0.00 | 0.00 | 88 | 1013.0 |
| 20260830120212 | 77 | 101 | 0.0 | 0.0 | 0.00 | 0.00 | 0.00 | 88 | 1013.0 |
| 20260830115505 | 77 | 120 | 0.0 | 0.0 | 0.00 | 0.00 | 0.00 | 88 | 1013.0 |
| 20260830115005 | 77 | 156 | 0.0 | 0.0 | 0.00 | 0.00 | 0.00 | 88 | 1013.0 |
| 20260830114505 | 77 | 112 | 0.0 | 0.0 | 0.00 | 0.00 | 0.00 | 88 | 1013.0 |
| 20260830114005 | 77 | 110 | 0.0 | 0.0 | 0.00 | 0.00 | 0.00 | 88 | 1012.7 |
| 20260830113505 | 77 | 54 | 4.0 | 0.0 | 0.00 | 0.00 | 0.00 | 88 | 1012.7 |
| 20260830113005 | 77 | 61 | 0.0 | 0.0 | 0.00 | 0.00 | 0.00 | 88 | 1012.7 |
| 20260830112504 | 77 | 73 | 0.0 | 0.0 | 0.00 | 0.00 | 0.00 | 87 | 1012.7 |
| 20260830112005 | 77 | 115 | 0.0 | 0.0 | 0.00 | 0.00 | 0.00 | 87 | 1012.7 |
| 20260830111505 | 77 | 129 | 0.0 | 0.0 | 0.00 | 0.00 | 0.00 | 87 | 1012.7 |
| 20260830111005 | 77 | 86 | 0.0 | 0.0 | 0.00 | 0.00 | 0.00 | 87 | 1013.0 |
| 20260830110505 | 77 | 126 | 0.0 | 0.0 | 0.00 | 0.00 | 0.00 | 87 | 1013.0 |
| 20260830110005 | 77 | 121 | 0.0 | 0.0 | 0.00 | 0.00 | 0.00 | 87 | 1013.0 |
| 20260830105505 | 77 | 115 | 0.0 | 0.0 | 0.00 | 0.00 | 0.00 | 86 | 1013.0 |
| 20260830105005 | 77 | 112 | 0.0 | 0.0 | 0.00 | 0.00 | 0.00 | 86 | 1012.7 |
| 20260830104505 | 77 | 118 | 0.0 | 0.0 | 0.00 | 0.00 | 0.00 | 86 | 1012.3 |
| 20260830104005 | 77 | 107 | 4.0 | 0.0 | 0.00 | 0.00 | 0.00 | 86 | 1012.3 |
| 20260830103504 | 77 | 86 | 4.0 | 0.0 | 0.00 | 0.00 | 0.00 | 86 | 1012.7 |
| 20260830103005 | 77 | 28 | 4.0 | 0.0 | 0.00 | 0.00 | 0.00 | 86 | 1012.7 |
| 20260830102505 | 77 | 95 | 0.0 | 0.0 | 0.00 | 0.00 | 0.00 | 86 | 1012.7 |
| 20260830102005 | 77 | 111 | 0.0 | 0.0 | 0.00 | 0.00 | 0.00 | 86 | 1013.0 |
| 20260830101505 | 77 | 90 | 0.0 | 0.0 | 0.00 | 0.00 | 0.00 | 86 | 1013.0 |
| 20260830101005 | 77 | 112 | 0.0 | 0.0 | 0.00 | 0.00 | 0.00 | 85 | 1012.7 |
| 20260830100505 | 77 | 81 | 4.0 | 0.0 | 0.00 | 0.00 | 0.00 | 85 | 1012.7 |
| 20260830100213 | 77 | 120 | 0.0 | 0.0 | 0.00 | 0.00 | 0.00 | 85 | 1012.7 |
| 20260830095712 | 77 | 109 | 4.0 | 0.0 | 0.00 | 0.00 | 0.00 | 85 | 1012.7 |
| 20260830095005 | 77 | 85 | 4.0 | 0.0 | 0.00 | 0.00 | 0.00 | 85 | 1012.7 |
| 20260830094505 | 77 | 111 | 0.0 | 0.0 | 0.00 | 0.00 | 0.00 | 84 | 1012.7 |
| 20260830094005 | 77 | 95 | 4.0 | 0.0 | 0.00 | 0.00 | 0.00 | 84 | 1012.7 |
| 20260830093505 | 78 | 137 | 4.0 | 0.0 | 0.00 | 0.00 | 0.00 | 84 | 1012.7 |
| 20260830093213 | 78 | 105 | 4.0 | 0.0 | 0.00 | 0.00 | 0.00 | 84 | 1012.7 |
| 20260830092712 | 78 | 100 | 4.0 | 0.0 | 0.00 | 0.00 | 0.00 | 84 | 1013.0 |
| 20260830092005 | 78 | 83 | 0.0 | 0.0 | 0.00 | 0.00 | 0.00 | 84 | 1013.0 |
| 20260830091505 | 78 | 131 | 4.0 | 0.0 | 0.00 | 0.00 | 0.00 | 84 | 1013.0 |
| 20260830091211 | 78 | 122 | 0.0 | 0.0 | 0.00 | 0.00 | 0.00 | 84 | 1013.0 |
| 20260830090505 | 78 | 107 | 0.0 | 0.0 | 0.00 | 0.00 | 0.00 | 84 | 1013.0 |
| 20260830090213 | 78 | 113 | 0.0 | 0.0 | 0.00 | 0.00 | 0.00 | 83 | 1013.0 |
| 20260830085505 | 78 | 137 | 4.0 | 0.0 | 0.00 | 0.00 | 0.00 | 83 | 1012.7 |
| 20260830085005 | 78 | 103 | 4.0 | 0.0 | 0.00 | 0.00 | 0.00 | 83 | 1013.0 |
| 20260830084505 | 78 | 125 | 9.0 | 0.0 | 0.00 | 0.00 | 0.00 | 83 | 1013.0 |
| 20260830084005 | 78 | 124 | 9.0 | 0.0 | 0.00 | 0.00 | 0.00 | 83 | 1013.0 |
| 20260830083505 | 78 | 176 | 4.0 | 0.0 | 0.00 | 0.00 | 0.00 | 83 | 1013.3 |
| 20260830083005 | 78 | 142 | 4.0 | 0.0 | 0.00 | 0.00 | 0.00 | 83 | 1013.0 |
| 20260830082506 | 78 | 128 | 9.0 | 0.0 | 0.00 | 0.00 | 0.00 | 83 | 1013.0 |
| 20260830082005 | 78 | 165 | 13.0 | 0.0 | 0.00 | 0.00 | 0.00 | 83 | 1013.0 |
| 20260830081711 | 78 | 48 | 4.0 | 0.0 | 0.00 | 0.00 | 0.00 | 83 | 1013.3 |
| 20260830081005 | 79 | 128 | 4.0 | 0.0 | 0.00 | 0.00 | 0.00 | 83 | 1013.3 |
| 20260830080505 | 78 | 142 | 9.0 | 0.0 | 0.00 | 0.00 | 0.00 | 83 | 1013.0 |
| 20260830080005 | 78 | 109 | 4.0 | 0.0 | 0.00 | 0.00 | 0.00 | 83 | 1013.3 |
| 20260830075505 | 78 | 134 | 9.0 | 0.0 | 0.00 | 0.00 | 0.00 | 83 | 1013.7 |
| 20260830075005 | 78 | 130 | 0.0 | 0.0 | 0.00 | 0.00 | 0.00 | 83 | 1013.3 |
| 20260830074505 | 78 | 126 | 0.0 | 0.0 | 0.00 | 0.00 | 0.00 | 83 | 1013.7 |
| 20260830074005 | 78 | 130 | 0.0 | 0.0 | 0.00 | 0.00 | 0.00 | 83 | 1013.7 |
| 20260830073713 | 78 | 74 | 0.0 | 0.0 | 0.00 | 0.00 | 0.00 | 83 | 1013.3 |
| 20260830073212 | 78 | 103 | 0.0 | 0.0 | 0.00 | 0.00 | 0.00 | 83 | 1013.7 |
| 20260830072505 | 78 | 118 | 0.0 | 0.0 | 0.00 | 0.00 | 0.00 | 83 | 1013.7 |
| 20260830072005 | 78 | 132 | 0.0 | 0.0 | 0.00 | 0.00 | 0.00 | 83 | 1013.7 |
| 20260830071505 | 78 | 132 | 0.0 | 0.0 | 0.00 | 0.00 | 0.00 | 83 | 1013.7 |
| 20260830071005 | 78 | 44 | 9.0 | 0.0 | 0.00 | 0.00 | 0.00 | 83 | 1013.7 |
| 20260830070713 | 78 | 98 | 0.0 | 0.0 | 0.00 | 0.00 | 0.00 | 83 | 1013.7 |
| 20260830070212 | 78 | 111 | 4.0 | 0.0 | 0.00 | 0.00 | 0.00 | 83 | 1014.0 |
| 20260830065713 | 78 | 112 | 0.0 | 0.0 | 0.00 | 0.00 | 0.00 | 82 | 1014.0 |
| 20260830065005 | 79 | 131 | 0.0 | 0.0 | 0.00 | 0.00 | 0.00 | 82 | 1014.0 |
| 20260830064505 | 79 | 82 | 0.0 | 0.0 | 0.00 | 0.00 | 0.00 | 82 | 1014.0 |
| 20260830064212 | 79 | 84 | 4.0 | 0.0 | 0.00 | 0.00 | 0.00 | 82 | 1014.0 |
| 20260830063505 | 79 | 49 | 4.0 | 0.0 | 0.00 | 0.00 | 0.00 | 82 | 1014.0 |
| 20260830063005 | 79 | 113 | 0.0 | 0.0 | 0.00 | 0.00 | 0.00 | 81 | 1014.0 |
| 20260830062713 | 79 | 111 | 0.0 | 0.0 | 0.00 | 0.00 | 0.00 | 81 | 1014.0 |
| 20260830062005 | 79 | 50 | 0.0 | 0.0 | 0.00 | 0.00 | 0.00 | 81 | 1014.0 |
| 20260830061505 | 79 | 108 | 0.0 | 0.0 | 0.00 | 0.00 | 0.00 | 81 | 1014.0 |
| 20260830061004 | 79 | 113 | 0.0 | 0.0 | 0.00 | 0.00 | 0.00 | 80 | 1014.0 |
| 20260830060506 | 79 | 43 | 4.0 | 0.0 | 0.00 | 0.00 | 0.00 | 80 | 1014.0 |
| 20260830060005 | 79 | 82 | 4.0 | 0.0 | 0.00 | 0.00 | 0.00 | 80 | 1014.0 |
| 20260830055505 | 79 | 95 | 13.0 | 0.0 | 0.00 | 0.00 | 0.00 | 80 | 1014.0 |
| 20260830055005 | 79 | 111 | 4.0 | 0.0 | 0.00 | 0.00 | 0.00 | 80 | 1014.0 |
| 20260830054713 | 79 | 40 | 13.0 | 0.0 | 0.00 | 0.00 | 0.00 | 80 | 1014.0 |
| 20260830054212 | 79 | 137 | 4.0 | 0.0 | 0.00 | 0.00 | 0.00 | 80 | 1014.0 |
| 20260830053505 | 79 | 123 | 0.0 | 0.0 | 0.00 | 0.00 | 0.00 | 79 | 1014.0 |
| 20260830053005 | 79 | 123 | 9.0 | 0.0 | 0.00 | 0.00 | 0.00 | 79 | 1014.0 |
| 20260830052505 | 79 | 93 | 4.0 | 0.0 | 0.00 | 0.00 | 0.00 | 79 | 1014.4 |
| 20260830052005 | 80 | 120 | 0.0 | 0.0 | 0.00 | 0.00 | 0.00 | 78 | 1014.4 |
| 20260830051504 | 80 | 129 | 0.0 | 0.0 | 0.00 | 0.00 | 0.00 | 78 | 1014.0 |
| 20260830051214 | 80 | 36 | 9.0 | 0.0 | 0.00 | 0.00 | 0.00 | 78 | 1014.4 |